Location: Leedale
(52.5833°N, 114.4833°W)
Time: 14:15:52
(UTC+00:00)

Envisat - Pass Details

Date: 13 August 2024
Orbit: 762 x 764 km, 98.3° (Epoch: 08 September)

Event Time Altitude Azimuth Distance (km) Brightness Sun altitude
Rises 11:33:14 0° 12° (NNE) 3,242 7.0 -6.7°
Reaches altitude 10° 11:35:34 10° 9° (N) 2,311 6.2 -6.4°
Maximum altitude 11:40:33 58° 291° (WNW) 893 3.2 -5.8°
Drops below altitude 10° 11:45:30 10° 214° (SSW) 2,294 4.9 -5.2°
Enters shadow 11:47:15 - 211° (SSW) 2,989 5.5 -5.0°
